Погода в Ивановке

Украина / Луганская область     48°30′05″N   39°45′53″E
В апреле 2022 года жителям России запретили посещать сайт meteo.paraplan.net по решению Генеральной прокуратуры. Аудитория сайта уменьшилась в 10 раз. Владельцы сайта не видят смысла в поддержке погодного сервера в таких условиях. Сайт будет закрыт в октябре.
темп.,
°C
ветер,
м/с
пор.,
м/с
влажн.,
%
обл.,
%
осадки,
мм/ч
давл.,
гПа
погр.,
м
3 октября, пн
пн300:00+19ююв41163100 0.0 999391
03:00+17юз71189100 2.7 999911
06:00+13зюз6117638 0.5 1004868
09:00+14зюз811583 0.6 10071384
12:00+16зюз8104757 0.0 10091866
15:00+17зюз7104474 0.0 10111919
18:00+16юз4645100 0.0 1012194
21:00+14ююз5859100 0.0 1014457
4 октября, вт
вт400:00+13ю3772100 0.0 1014212
03:00+12ю3877100 0.0 1014224
06:00+12ююв367594 0.0 1015167
09:00+15ю4660100 0.0 1016392
12:00+19ююз584493 0.0 10151513
15:00+19ююз474794 0.0 10151327
18:00+15юз34585 0.0 101764
21:00+14ююз35645 0.0 101884
5 октября, ср
ср500:00+13юз22755 0.0 101939
03:00+11з22775 0.0 101919
06:00+10зсз237320 0.0 102148
09:00+14зсз345696 0.0 1022442
12:00+17з46395 0.0 10221345
15:00+18з57365 0.0 10211840
18:00+14з34505 0.0 102265
21:00+12з345812 0.0 102355
6 октября, чт
чт600:00+11зсз37715 0.0 1024180
03:00+9зсз368582 0.0 1025154
06:00+9з3779100 0.0 1025201
09:00+11зсз46645 0.0 1025545
12:00+15зсз554977 0.0 10251022
15:00+16зсз45485 0.0 10241087
18:00+14з11585 0.0 102511
21:00+12юз22625 0.0 102515
7 октября, пт
пт700:00+11юз33640 0.0 102543
03:00+11юз34675 0.0 102571
06:00+10зюз33705 0.0 102539
09:00+15зюз355510 0.0 1025342
12:00+19з45445 0.0 10241152
15:00+20зсз45425 0.0 10231359
18:00+16сз22580 0.0 102414
21:00+14с22702 0.0 102511